Location: Nitra
(0.0000°N, 18.0833°E)
Time: 03:54:56
(UTC+01:00)

ARGOS Delta rocket - Pass Details

Date: 25 September 2022
Orbit: 633 x 837 km, 96.4° (Epoch: 01 December)

Event Time Altitude Azimuth Distance (km) Brightness Sun altitude
Rises 19:12:32 0° 8° (N) 3,250 7.2 -8.3°
Reaches altitude 10° 19:14:54 10° 7° (N) 2,296 6.4 -8.9°
Maximum altitude 19:19:58 81° 281° (W) 747 4.1 -10.2°
Drops below altitude 10° 19:24:45 10° 193° (SSW) 2,173 6.5 -11.4°
Sets 19:26:57 0° 192° (SSW) 3,063 7.3 -11.9°
